Simultaneous Nadir Overpasses (SNOs) Predictions

Prediction of SNOs between GOES-15 and NPP Satellite Orbit:

Table of predicted SNOs for the next 14.0 days since TLE Epoch: 7/6/2024
Index Date Time (GOES-15) GOES-15 Lat,Lon NPP Lat,Lon Distance(km) Time Diff (sec)
1 07/06/2024 21:14:23 -0.23, 61.20 -0.60, 62.87 190.28 80
2 07/08/2024 09:33:42 0.27, 61.14 -0.53, 57.55 409.28 80
3 07/09/2024 09:17:39 0.25, 61.14 0.47, 62.07 107.02 80
4 07/11/2024 21:20:45 -0.27, 61.19 -0.32, 61.32 14.87 80
5 07/14/2024 09:21:20 0.28, 61.14 0.15, 60.53 69.51 80
6 07/15/2024 09:05:17 0.27, 61.14 1.16, 65.06 446.23 80
7 07/16/2024 21:24:26 -0.31, 61.21 0.04, 59.78 163.32 80
8 07/17/2024 21:08:23 -0.30, 61.22 -0.97, 64.31 351.77 80
9 07/19/2024 09:27:42 0.33, 61.18 -0.14, 58.98 250.12 80
